Location: Newark
(16.3678°N, 77.8722°E)
Time: 09:39:42
(UTC+00:00)

S-56A Canister/Altair - Pass Details

Date: 15 December 2019
Orbit: 634 x 2498 km, 38.9° (Epoch: 27 January)

Event Time Altitude Azimuth Distance (km) Brightness Sun altitude
Rises 07:29:03 0° 306° (NW) 6,081 12.0 48.8°
Reaches altitude 10° 07:33:45 10° 316° (NW) 5,146 11.6 48.5°
Maximum altitude 07:46:47 33° 15° (NNE) 3,463 10.8 47.5°
Drops below altitude 10° 07:58:05 10° 75° (ENE) 4,493 11.3 46.4°
Sets 08:01:48 0° 85° (E) 5,247 11.6 46.0°
